Regional Weather Roundup
Issued by NWS

Home | Current Version | Previous Version | Text Only | Print | Product List | Glossary Off
Versions: 1 2 3 4 5 6 7 8 9 10 11 12 13 14 15 16 17 18 19 20 21 22 23 24 25 26 27 28 29 30 31 32 33 34 35 36 37 38 39 40 41 42 43 44 45 46 47 48 49 50

000
ASUS45 KCYS 041110
RWRWY

WYOMING REGIONAL WEATHER ROUNDUP
NATIONAL WEATHER SERVICE CHEYENNE WY
500 AM MDT SAT JUL 04 2015

NOTE:  "FAIR" INDICATES FEW OR NO CLOUDS BELOW 12,000 FEET
WITH NO SIGNIFICANT WEATHER AND/OR OBSTRUCTIONS TO VISIBILITY.

WYZ001-041200-
YELLOWSTONE NATIONAL PARK

CITY           SKY/WX    TMP DP  RH WIND       PRES   REMARKS
LK YELLOWSTONE   N/A     44  40  85 CALM      30.21S
W YELLOWSTONE  NOT AVBL

$$
WYZ002>013-054>058-071-098>099-041200-
NORTHERN WYOMING

CITY           SKY/WX    TMP DP  RH WIND       PRES   REMARKS
JACKSON        FAIR      52  45  76 N6        30.10S
CODY           FAIR      66  46  48 SW8       29.97S
GREYBULL       FAIR      66  50  56 SE3       29.89S
WORLAND        FAIR      61  53  75 SE3       29.90S
SHERIDAN       FAIR      58  52  80 CALM      29.88R
BUFFALO        FAIR      68  47  46 W7        29.94S
GILLETTE       FAIR      63  57  81 SE8       29.91S
HULETT         FAIR      68  55  64 SW9       29.92S
NEWCASTLE      FAIR      66  52  59 SE7       29.94F

$$
WYZ014>020-022>026-101>103-041200-
CENTRAL WYOMING

CITY           SKY/WX    TMP DP  RH WIND       PRES   REMARKS
BIG PINEY      FAIR      53  41  63 NE3       30.14S
PINEDALE       PTSUNNY   52  46  82 W3        30.16S
DUBOIS         FAIR      52  37  58 NW12      30.14S
LANDER         FAIR      64  46  52 SW5       30.01S
RIVERTON       FAIR      63  51  65 W7        30.00S
CASPER         FAIR      57  51  80 NE5       29.98R
DOUGLAS        FAIR      57  52  83 SE5       29.97S

$$
WYZ021-027>030-104>119-041200-
SOUTHERN WYOMING

CITY           SKY/WX    TMP DP  RH WIND       PRES   REMARKS
EVANSTON       FAIR      64  41  42 SE6       30.16S
KEMMERER       FAIR      61  43  51 N7        30.17S
FORT BRIDGER   SUNNY     66  39  37 W9        30.17S
ROCK SPRINGS   FAIR      63  40  42 SW7       30.12S
DIXON          FAIR      53  42  67 E7        30.15R
RAWLINS        FAIR      53  49  86 CALM      30.10F
SARATOGA       FAIR      55  45  67 S6        30.14R
LARAMIE        FAIR      54  49  83 S7        30.13R
CHEYENNE       FAIR      59  54  83 SW6       30.06F
TORRINGTON     FAIR      63  58  83 E8        29.94S
PINE BLUFFS    FAIR      61  57  88 S5        30.01F

$$



USA.gov is the U.S. government's official web portal to all federal, state and local government web resources and services.